Погода в Сухобузимском

Россия / Красноярский край     56°30′04″N   93°16′29″E
темп.,
°C
ветер,
м/с
пор.,
м/с
влажн.,
%
обл.,
%
осадки,
мм/ч
давл.,
гПа
погр.,
м
13 мая, чт
чт1301:00+6вюв22570 0.0 101714
04:00+5вюв11590 0.0 101710
07:00+7вюв22520 0.0 1018154
10:00+12вюв34340 0.0 10171313
13:00+14юв33280 0.0 10161791
16:00+16юв33270 0.0 10151794
19:00+14юв35355 0.0 1014420
22:00+9юв38475 0.0 1014123
14 мая, пт
пт1401:00+7ююв24525 0.0 101369
04:00+5ююв22575 0.0 101223
07:00+8ююз245195 0.0 1011181
10:00+13зюз5758100 0.1 1010862
13:00+9зсз3778100 3.8 1011735
16:00+7сз6107235 0.6 10131029
19:00+8сз5105690 0.6 10151755
22:00+5з3771100 0.0 1018193
15 мая, сб
сб1501:00+4зюз377587 0.0 1018149
04:00+3зюз41170100 0.0 1017281
07:00+6зюз51059100 0.0 1017980
10:00+5юз61481100 0.5 1015766
13:00+12зюз8136393 1.8 10131014
16:00+17зюз71458100 0.0 10111707
19:00+16зюз81459100 0.1 1011972
22:00+13зюз81772100 1.1 10111037
16 мая, вс
вс1601:00+13зюз91684100 2.1 1010851
04:00+12зюз61491100 0.8 1009834
07:00+13зюз61382100 1.4 1010713
10:00+9с4595100 1.3 1011290
13:00+8с4694100 5.4 1012333
16:00+8с3590100 1.8 1013368
19:00+8с2483100 1.8 1014517
22:00+7з2291100 0.0 101519
17 мая, пн
пн1701:00+4сз36796 0.0 1016103
04:00+3сз2375100 0.0 101856
07:00+5сз2365100 0.0 1019221
10:00+9з2347100 0.0 1019799
13:00+12юз3440100 0.0 10171241
16:00+16юз4841100 0.0 10121684
19:00+13юз61569100 0.4 1008790
22:00+12ююз4109468 0.0 1007203